Location: Remedello Sotto
(45.2500°N, 10.3667°E)
Time: 10:03:23
(UTC+00:00)

Cosmos 1844 Rocket - Pass Details

Date: 03 February 2023
Orbit: 825 x 843 km, 71.0° (Epoch: 31 March)

Event Time Altitude Azimuth Distance (km) Brightness Sun altitude
Rises 17:41:43 0° 335° (NNW) 3,374 6.0 -13.2°
Reaches altitude 10° 17:44:10 10° 337° (NNW) 2,436 5.3 -13.6°
Maximum altitude 17:49:45 75° 63° (ENE) 858 2.6 -14.6°
Drops below altitude 10° 17:55:19 10° 149° (SSE) 2,422 4.9 -15.6°
Sets 17:57:44 0° 151° (SSE) 3,352 5.6 -16.0°
